Weather History for Glasgow, KY

Change the Weather History Date:

Thursday, February 21, 2013

  Actual Average Record
Temperature  
Mean Temperature 32 °F -  
Max Temperature 42 °F 54 °F 67 °F (1983)
Min Temperature 22 °F 30 °F 6 °F (1963)
Degree Days  
Heating Degree Days 33    
Moisture  
Dew Point 1 °F    
Average Humidity 37    
Maximum Humidity 86    
Minimum Humidity 4    
Precipitation  
Precipitation 0.50 in - - ()
Sea Level Pressure  
Sea Level Pressure 30.12 in    
Wind  
Wind Speed 7 mph (ENE)    
Max Wind Speed 17 mph    
Max Gust Speed 25 mph    
Visibility 9 miles    
Events Rain , Snow    
Averages and records for this station are not official NWS values.
T = Trace of Precipitation, MM = Missing Value Source: NWS Daily Summary

Daily Weather History Graph

Daily Weather History Graph

Search for Another Location

Airport:

Trip Planner

Search our weather history database for the weather conditions in past years. The results will help you decide how hot, cold, wet, or windy it might be!

Date:

Astronomy

Feb. 21, 2013 Rise Set
Actual Time 6:24 AM CST 5:30 PM CST
Civil Twilight 5:58 AM CST 5:56 PM CST
Nautical Twilight 5:28 AM CST 6:26 PM CST
Astronomical Twilight 4:58 AM CST 6:57 PM CST
Moon 1:48 PM CST (2/21) 3:25 AM CST (2/21)
Length of Visible Light 11h 58m
Length of Day
11h 05m
Waxing Gibbous, 84% of the Moon is Illuminated
Feb 21
Waxing Gibbous
Feb 25
Full
Mar 4
Last Quarter
Mar 11
New
Mar 19
First Quarter

Hourly Weather History & Observations

Time (CST) Temp. Windchill Dew Point Humidity Pressure Visibility Wind Dir Wind Speed Gust Speed Precip Events Conditions
12:15 AM 26.2 °F 22.1 °F 1.6 °F 35% 30.26 in 10.0 mi NE 3.5 mph - N/A   Clear
12:35 AM 25.9 °F 20.3 °F 1.9 °F 36% 30.26 in 10.0 mi NE 4.6 mph - N/A   Clear
12:55 AM 25.7 °F 21.5 °F 1.9 °F 36% 30.26 in 10.0 mi NE 3.5 mph - N/A   Clear
1:15 AM 25.2 °F 19.5 °F 1.9 °F 37% 30.25 in 10.0 mi NE 4.6 mph - N/A   Clear
1:35 AM 25.0 °F 19.3 °F 2.3 °F 38% 30.24 in 10.0 mi NE 4.6 mph - N/A   Clear
1:55 AM 24.6 °F 20.3 °F 2.5 °F 39% 30.24 in 10.0 mi NE 3.5 mph - N/A   Clear
2:15 AM 24.6 °F - 2.3 °F 38% 30.26 in 10.0 mi Calm Calm - N/A   Clear
2:35 AM 24.3 °F 19.9 °F 2.1 °F 39% 30.26 in 10.0 mi NE 3.5 mph - N/A   Clear
2:55 AM 23.9 °F 16.8 °F 2.3 °F 39% 30.24 in 10.0 mi NE 5.8 mph - N/A   Clear
3:15 AM 23.7 °F 16.6 °F 2.5 °F 40% 30.23 in 10.0 mi ENE 5.8 mph - N/A   Clear
3:35 AM 23.4 °F 18.9 °F 3.0 °F 42% 30.24 in 10.0 mi ENE 3.5 mph - N/A   Clear
3:55 AM 23.0 °F 18.4 °F 3.2 °F 43% 30.24 in 10.0 mi NE 3.5 mph - N/A   Clear
4:15 AM 22.8 °F 16.7 °F 3.4 °F 43% 30.24 in 10.0 mi NNE 4.6 mph - N/A   Clear
4:35 AM 23.0 °F 18.4 °F 3.2 °F 43% 30.25 in 10.0 mi NE 3.5 mph - N/A   Clear
5:15 AM 22.8 °F 18.2 °F 3.2 °F 43% 30.26 in 10.0 mi NE 3.5 mph - N/A   Clear
5:35 AM 22.8 °F 16.7 °F 3.4 °F 43% 30.26 in 10.0 mi NE 4.6 mph - N/A   Clear
5:55 AM 22.6 °F - 3.6 °F 44% 30.28 in 10.0 mi Calm Calm - N/A   Clear
6:15 AM 22.1 °F 14.7 °F 3.7 °F 45% 30.27 in 10.0 mi NE 5.8 mph - N/A   Clear
6:35 AM 22.1 °F 15.9 °F 3.9 °F 46% 30.27 in 10.0 mi NE 4.6 mph - N/A   Clear
6:55 AM 22.8 °F 15.5 °F 3.6 °F 44% 30.26 in 10.0 mi NE 5.8 mph - N/A   Clear
7:15 AM 23.2 °F 16.0 °F 4.3 °F 44% 30.27 in 10.0 mi ENE 5.8 mph - N/A   Clear
7:35 AM 25.0 °F 17.1 °F 3.7 °F 40% 30.26 in 10.0 mi ENE 6.9 mph - N/A   Clear
7:55 AM 25.9 °F 16.0 °F 3.7 °F 39% 30.23 in 10.0 mi ENE 10.4 mph - N/A   Clear
8:15 AM 26.4 °F 15.0 °F 3.4 °F 37% 30.23 in 10.0 mi East 13.8 mph - N/A   Clear
8:35 AM 27.3 °F 17.1 °F 2.7 °F 35% 30.23 in 10.0 mi East 11.5 mph - N/A   Clear
8:55 AM 29.1 °F 20.0 °F 1.8 °F 31% 30.24 in 10.0 mi East 10.4 mph - N/A   Clear
9:15 AM 30.4 °F 21.0 °F -0.2 °F 27% 30.23 in 10.0 mi ENE 11.5 mph - N/A   Clear
9:35 AM 32.0 °F 24.8 °F -1.8 °F 24% 30.22 in 10.0 mi ENE 8.1 mph - N/A   Clear
9:55 AM 33.8 °F 26.4 °F -4.5 °F 19% 30.22 in 10.0 mi ENE 9.2 mph - N/A   Clear
10:15 AM 35.4 °F 27.3 °F -6.3 °F 17% 30.21 in 10.0 mi East 11.5 mph - N/A   Clear
10:35 AM 37.0 °F 30.4 °F -10.1 °F 13% 30.20 in 10.0 mi ENE 9.2 mph - N/A   Clear
10:55 AM 37.8 °F 30.2 °F -11.6 °F 12% 30.18 in 10.0 mi ENE 11.5 mph - N/A   Clear
11:15 AM 39.0 °F 31.8 °F -13.9 °F 10% 30.16 in 10.0 mi East 11.5 mph 18.4 mph N/A   Clear
11:35 AM 40.8 °F 35.0 °F -17.1 °F 8% 30.17 in 10.0 mi ENE 9.2 mph 16.1 mph N/A   Clear
12:15 PM 41.5 °F 34.2 °F -27.8 °F 5% 30.13 in 10.0 mi East 13.8 mph 19.6 mph N/A   Scattered Clouds
12:35 PM 41.7 °F 35.2 °F -24.9 °F 5% 30.12 in 10.0 mi ENE 11.5 mph - N/A   Clear
12:55 PM 41.9 °F 35.9 °F -25.4 °F 5% 30.10 in 10.0 mi ENE 10.4 mph - N/A   Clear
1:15 PM 42.3 °F 36.3 °F -28.7 °F 4% 30.10 in 10.0 mi ENE 10.4 mph 16.1 mph N/A   Clear
1:35 PM 42.1 °F 35.2 °F -28.7 °F 4% 30.06 in 10.0 mi ENE 12.7 mph 19.6 mph N/A   Clear
1:55 PM 42.3 °F 34.1 °F -33.0 °F 4% 30.04 in 10.0 mi East 17.3 mph 21.9 mph N/A   Clear
2:15 PM 42.3 °F 34.8 °F -33.3 °F 4% 30.03 in 10.0 mi East 15.0 mph 19.6 mph N/A   Clear
2:35 PM 42.3 °F 35.1 °F -28.7 °F 4% 30.01 in 10.0 mi East 13.8 mph 20.7 mph N/A   Clear
2:55 PM 42.3 °F 35.5 °F -34.4 °F 4% 29.99 in 10.0 mi East 12.7 mph 19.6 mph N/A   Scattered Clouds
3:15 PM - - - N/A% 30.00 in 10.0 mi East 13.8 mph 23.0 mph N/A   Overcast
3:35 PM 42.4 °F 35.7 °F -36.4 °F 4% 30.00 in 10.0 mi East 12.7 mph 18.4 mph N/A   Overcast
3:55 PM 42.4 °F 37.5 °F -31.9 °F 4% 30.00 in 10.0 mi ENE 8.1 mph 16.1 mph N/A   Mostly Cloudy
4:15 PM 42.4 °F 37.0 °F -28.7 °F 4% 30.02 in 10.0 mi East 9.2 mph - N/A   Overcast
4:35 PM 42.4 °F 39.6 °F -26.5 °F 5% 30.03 in 10.0 mi NE 4.6 mph - N/A   Overcast
4:55 PM 42.1 °F 40.2 °F -17.0 °F 8% 30.06 in 10.0 mi North 3.5 mph - N/A Rain Light Rain
5:15 PM 40.5 °F 37.3 °F 1.8 °F 20% 30.07 in 10.0 mi NNE 4.6 mph - N/A Rain Rain
5:35 PM 38.7 °F 35.2 °F 11.3 °F 33% 30.08 in 5.0 mi NNE 4.6 mph - 0.03 in Rain Light Rain
5:55 PM 36.9 °F 31.4 °F 16.3 °F 43% 30.08 in 3.0 mi NNE 6.9 mph - 0.07 in   Overcast
6:15 PM 35.6 °F 29.2 °F 18.7 °F 50% 30.04 in 4.0 mi NE 8.1 mph - 0.03 in   Overcast
6:35 PM 35.1 °F 27.9 °F 18.9 °F 52% 30.02 in 7.0 mi NE 9.2 mph 17.3 mph 0.04 in Rain Light Rain
6:55 PM 34.9 °F 27.1 °F 19.0 °F 52% 30.01 in 10.0 mi ENE 10.4 mph 17.3 mph 0.05 in Rain Light Rain
7:15 PM 34.3 °F 25.5 °F 19.6 °F 55% 29.99 in 2.5 mi ENE 12.7 mph 19.6 mph 0.08 in Snow Light Snow
7:35 PM 34.0 °F 23.8 °F 19.9 °F 56% 30.01 in 3.0 mi East 16.1 mph 19.6 mph 0.15 in Snow Light Snow
7:55 PM 34.0 °F 25.0 °F 20.8 °F 59% 29.99 in 4.0 mi East 12.7 mph 25.3 mph 0.24 in Snow Light Snow
8:15 PM 34.2 °F 25.2 °F 21.2 °F 59% 30.00 in 7.0 mi East 12.7 mph - 0.01 in Rain Light Rain
8:35 PM 34.7 °F 25.9 °F 21.4 °F 58% 30.01 in 7.0 mi East 12.7 mph 17.3 mph 0.02 in Rain Light Rain
8:55 PM 34.9 °F 27.1 °F 21.6 °F 58% 30.01 in 10.0 mi East 10.4 mph - 0.03 in Rain Light Rain
9:15 PM 35.1 °F 25.5 °F 22.8 °F 61% 29.99 in 3.0 mi East 15.0 mph - 0.05 in Snow Light Snow
9:35 PM 35.1 °F 25.2 °F 28.0 °F 76% 29.97 in 5.0 mi East 16.1 mph 20.7 mph 0.08 in Rain Light Rain
9:55 PM 35.2 °F 26.6 °F 30.9 °F 84% 29.94 in 10.0 mi East 12.7 mph 19.6 mph 0.10 in   Overcast
10:15 PM 35.8 °F 28.3 °F 32.0 °F 86% 29.93 in 7.0 mi East 10.4 mph 16.1 mph N/A   Light Drizzle
10:35 PM 36.5 °F 28.7 °F 32.0 °F 84% 29.92 in 10.0 mi ESE 11.5 mph - N/A Rain Light Rain
10:55 PM 37.0 °F 30.4 °F 32.0 °F 82% 29.92 in 10.0 mi East 9.2 mph - 0.01 in   Overcast
11:15 PM 37.9 °F 32.1 °F 31.6 °F 78% 29.91 in 10.0 mi East 8.1 mph - N/A   Overcast
11:35 PM 38.7 °F 32.9 °F 31.1 °F 74% 29.90 in 10.0 mi East 8.1 mph - N/A   Overcast
11:55 PM 39.4 °F 33.2 °F 31.5 °F 73% 29.88 in 10.0 mi East 9.2 mph - N/A   Overcast